Showing default

SPIP, 58298

Orbit data source: Space-Track

SPIP, 58298 is a payload satellite owned by Aerospacelab (BE) in SSO that was launched on Sat, 11 Nov 2023 UTC via an FALCON 9 launch vehicle from the Air Force Western Test Range (AFWTR). Payload-class satellites include a variety of spacecraft equipped with specific instruments for various scientific and technological missions. These include communications satellites like Starlink; space stations such as the ISS; scientific satellites like the Hubble; Earth observation satellites from companies like Planet Labs, Umbra, and HawkEye 360; GPS; miniature CubeSats for education and research; and military/defense satellites.

Loading next visibility...
Identifier
58298, 2023-174AU
Orbit
SSO
Country
Flag of BEBE / BEL
Related business
Manufacturer
Aerospacelab
Mission
Operational Commercial Imaging
Bus & Motor
VSP, Unknown motor
Mass
120 kg wet, 120 kg dry
Launch date (UTC)
2023-11-11 (3 years ago)
Launch vehicle
FALCON 9
Launch site
Air Force Western Test Range (AFWTR)
Object type
Payload
Rocket body
Debris
Shape & HBR
Box + 2 Pan, 1.0 m
Radar Cross Section
0.963 m², Large (>1 m²)

Expand to show TLE details & history
Last TLE update: 8 hours ago

TLE from 8 hours ago
0 SPIP
1 58298U 23174AU  26248.31044941  .00002427  00000-0  90850-4 0  9998
2 58298  97.3787 324.0634 0007522 260.2714  99.7676 15.28244256157012
Epoch: 2026-09-05T07:27Z
TLE epoch observation values (Epoch: 2026-09-05T07:27:02.829Z)
Latitude
-0.00002°
Longitude
-132.12014°
Altitude
485.042 km
Speed
7.622 km/s
True Right ascension
21h 36m 15s
True Declination
0° 00' 00"
Sunlit
Object was in full shadow at epoch
Visualization orbit readout
Latitude
Unknown
Longitude
Unknown
Altitude
Unknown
Speed
Unknown
Apparent Right ascension
Unknown
Apparent Declination
Unknown
Sunlit
N/A
Visualization observer readout
Local Sidereal Time
07:14:05
Azimuth
Unknown
Elevation
Unknown
Doppler factor
Unknown
Orbital elements
Apogee altitude
483.172 km
Perigee altitude
472.857 km
Semi-major axis
6,856.151 km
Eccentricity
0.00075
Inclination
97.3787°
RAAN
324.0634°
Arg. of periapsis
260.2714°
True anomaly
99.85253°
Mean anomaly
99.7676°
Eccentric anomaly
99.81007°
Mean motion
3.82316 °/min
Orbital period
94.16 mins
BSTAR
0.00009085
Loading maneuver chart data...
Computing Atmospheric mass density...
Loading historical data...
Loading historical data...
Loading historical data...
Loading historical data...
Loading historical data...
Loading historical data...
Loading historical data...

Documentation

Showing up to 5 results
|